Home   Weather   Anacortes   Past weeks
Flag for USA

Past Weather in Anacortes, Washington, USA — Yesterday and Last 2 Weeks

Now
64 °F

Light rain. Mostly cloudy.


Feels Like: 64 °F
Forecast: 64 / 59 °F
Wind: 29 mph from Southeast

Location: Whidbey Island
Current Time: Sep 23, 2020 at 3:33:12 pm
Latest Report: Sep 23, 2020 at 2:56 pm
Visibility: 10 mi
Pressure29.68 "Hg
Humidity: 78%
Dew Point: 57 °F
Location of AnacortesLocation

Past Weather in Anacortes — Graph

°F

Anacortes Temperature Yesterday

Maximum temperature yesterday: 67 °F (at 11:56 pm)
Minimum temperature yesterday: 55 °F (at 4:56 am)
Average temperature yesterday: 61 °F

High & Low Weather Summary for the Past Weeks

 TemperatureHumidityPressure
High74 °F (Sep 10, 3:56 pm)96% (Sep 18, 8:29 am)30.24 "Hg (Sep 18, 8:29 am)
Low49 °F (Sep 9, 5:56 am)27% (Sep 8, 5:56 pm)29.68 "Hg (Sep 23, 2:31 pm)
Average59 °F80%30.02 "Hg
* Reported Sep 8 2:56 pm — Sep 23 2:31 pm, Anacortes. Weather by CustomWeather, © 2020

Note: Actual official high and low records may vary slightly from our data, if they occured in-between our weather recording intervals... More about our weather records

Anacortes Weather History for the Previous 24 Hours

Scroll right to see more
 ConditionsComfort  
Time TempWeatherWind HumidityBarometerVisibility
2:31 pm
Wed, Sep 23
63 °FLight rain. Cloudy.29 mph84%29.68 "Hg10 mi
1:56 pm63 °FLight rain. Mostly cloudy.29 mph84%29.71 "Hg10 mi
12:56 pm62 °FLight rain. Cloudy.20 mph86%29.72 "Hg8 mi
12:40 pm62 °FLight rain. Mostly cloudy.26 mph83%29.74 "Hg7 mi
11:56 am63 °FLight rain. Mostly cloudy.28 mph78%29.74 "Hg8 mi
10:56 am63 °FLight rain. Cloudy.28 mph78%29.76 "Hg9 mi
9:56 am64 °FLight rain. Cloudy.33 mph75%29.73 "Hg9 mi
9:03 am62 °FLight rain. Cloudy.29 mph78%29.75 "Hg8 mi
8:47 am63 °FLight rain. Mostly cloudy.30 mph75%29.76 "Hg9 mi
7:56 am62 °FCloudy.29 mph75%29.78 "Hg9 mi
6:56 am61 °FMostly cloudy.29 mph78%29.79 "Hg9 mi
5:56 am62 °FOvercast.28 mph73%29.81 "Hg9 mi
4:56 am62 °FLight rain. Overcast.30 mph73%29.82 "Hg10 mi
3:56 am67 °FOvercast.25 mph61%29.83 "Hg10 mi
2:56 am64 °FLight rain. Partly cloudy.24 mph70%29.86 "Hg10 mi
1:56 am65 °FOvercast.21 mph63%29.86 "Hg10 mi
12:56 am65 °FOvercast.15 mph63%29.88 "Hg10 mi
11:56 pm
Tue, Sep 22
67 °FOvercast.16 mph55%29.90 "Hg10 mi
10:56 pm65 °FPartly cloudy.13 mph61%29.93 "Hg10 mi
9:56 pm61 °FPassing clouds.12 mph72%29.92 "Hg10 mi
8:56 pm59 °FMostly cloudy.No wind78%29.95 "Hg10 mi
7:56 pm60 °FOvercast.No wind75%29.98 "Hg10 mi
6:56 pm61 °FCloudy.No wind72%29.99 "Hg10 mi
5:56 pm62 °FCloudy.5 mph70%30.00 "Hg10 mi
4:56 pm60 °FBroken clouds.5 mph75%30.02 "Hg10 mi
3:56 pm64 °FBroken clouds.6 mph65%30.02 "Hg10 mi
Weather by CustomWeather, © 2020

See weather overview